Mattoon, IL

6:07 PM CDT on June 27, 2017 (GMT -0500)
Coles County Memorial

Weather History for KMTO - April, 2013

Change the Weather History Date:

Wednesday, April 10, 2013

  Actual Average Record
Temperature  
Mean Temperature 66 °F 52 °F  
Max Temperature 80 °F 62 °F 82 °F (1977)
Min Temperature 52 °F 41 °F 24 °F (1960)
Degree Days  
Heating Degree Days 0 14  
Month to date heating degree days 133 155  
Since 1 July heating degree days 4992 5058  
Cooling Degree Days 1 0  
Month to date cooling degree days 2 0  
Year to date cooling degree days 2 1  
Growing Degree Days 16 (Base 50)    
Moisture  
Dew Point 59 °F    
Average Humidity 76    
Maximum Humidity 93    
Minimum Humidity 58    
Precipitation  
Precipitation 0.99 in 0.10 in 1.84 in (2001)
Month to date precipitation 1.13 0.95  
Year to date precipitation 8.52 7.50  
Sea Level Pressure  
Sea Level Pressure 29.77 in    
Wind  
Wind Speed 13 mph (South)    
Max Wind Speed 36 mph    
Max Gust Speed 40 mph    
Visibility 7 miles    
Events Rain , Thunderstorm    
T = Trace of Precipitation, MM = Missing Value Source: NWS Daily Summary

Daily Weather History Graph

Daily Weather History Graph

Search for Another Location

Airport or City:

Trip Planner

Search our weather history database for the weather conditions in past years. The results will help you decide how hot, cold, wet, or windy it might be!

Date:

Astronomy

Apr. 10, 2013 Rise Set
Actual Time 6:23 AM CDT 7:26 PM CDT
Civil Twilight 5:55 AM CDT 7:53 PM CDT
Nautical Twilight 5:22 AM CDT 8:26 PM CDT
Astronomical Twilight 4:48 AM CDT 9:00 PM CDT
Moon 6:19 AM CDT (4/10) 8:01 PM CDT (4/10)
Length of Visible Light 13h 58m
Length of Day
13h 03m
New Moon, 0% of the Moon is Illuminated
Apr 10
New Moon
Apr 18
First Quarter
Apr 25
Full
May 2
Last Quarter
May 9
New

Hourly Weather History & Observations

Time (CDT) Temp. Dew Point Humidity Pressure Visibility Wind Dir Wind Speed Gust Speed Precip Events Conditions
12:53 AM 66.0 °F 61.0 °F 84% 29.84 in 10.0 mi SSE 9.2 mph - N/A   Scattered Clouds
1:53 AM 66.9 °F 61.0 °F 81% 29.83 in 10.0 mi South 9.2 mph - N/A   Mostly Cloudy
2:53 AM 66.9 °F 62.1 °F 84% 29.82 in 10.0 mi South 6.9 mph - N/A   Mostly Cloudy
3:53 AM 66.9 °F 62.1 °F 84% 29.82 in 10.0 mi South 10.4 mph - N/A   Overcast
4:53 AM 66.0 °F 62.1 °F 87% 29.80 in 10.0 mi South 12.7 mph - N/A   Clear
5:53 AM 66.9 °F 62.1 °F 84% 29.78 in 10.0 mi South 13.8 mph - N/A   Partly Cloudy
6:53 AM 66.9 °F 63.0 °F 87% 29.81 in 10.0 mi South 10.4 mph - N/A   Overcast
7:53 AM 69.1 °F 64.0 °F 84% 29.82 in 10.0 mi South 11.5 mph 20.7 mph N/A   Overcast
8:53 AM 70.0 °F 64.0 °F 81% 29.81 in 10.0 mi South 15.0 mph 25.3 mph N/A   Mostly Cloudy
9:50 AM 71.6 °F 64.4 °F 78% 29.84 in 10.0 mi SSW 18.4 mph 24.2 mph N/A   Mostly Cloudy
9:53 AM 72.0 °F 64.9 °F 78% 29.83 in 10.0 mi SSW 15.0 mph 24.2 mph N/A   Mostly Cloudy
10:53 AM 73.0 °F 66.0 °F 79% 29.84 in 10.0 mi SSW 12.7 mph 26.5 mph 0.00 in Rain Light Rain
1:53 PM 75.9 °F 64.9 °F 69% 29.81 in 10.0 mi SW 11.5 mph 19.6 mph N/A   Clear
2:53 PM 73.0 °F 64.0 °F 73% 29.78 in 10.0 mi North 8.1 mph - N/A   Mostly Cloudy
3:53 PM 79.0 °F 63.0 °F 58% 29.75 in 10.0 mi SSW 12.7 mph 25.3 mph N/A   Mostly Cloudy
4:53 PM 78.1 °F 64.9 °F 64% 29.73 in 10.0 mi South 16.1 mph 26.5 mph N/A   Mostly Cloudy
5:53 PM 57.9 °F 54.0 °F 87% 29.74 in 6.0 mi North 26.5 mph 40.3 mph N/A Thunderstorm Mostly Cloudy
5:59 PM 57.2 °F 53.6 °F 88% 29.75 in 2.5 mi NNE 27.6 mph 40.3 mph 0.06 in Rain , Thunderstorm Light Thunderstorms and Rain
6:06 PM 55.4 °F 55.4 °F 100% 29.76 in 1.5 mi NNE 25.3 mph 32.2 mph 0.08 in Rain , Thunderstorm Thunderstorms and Rain
6:20 PM 53.6 °F 53.6 °F 100% 29.77 in 2.0 mi NNE 20.7 mph 29.9 mph 0.13 in Rain , Thunderstorm Light Thunderstorms and Rain
6:26 PM 53.6 °F 53.6 °F 100% 29.75 in 3.0 mi ENE 13.8 mph 26.5 mph 0.13 in Thunderstorm Overcast
6:35 PM 53.6 °F 53.6 °F 100% 29.75 in 2.5 mi ENE 17.3 mph - 0.13 in   Overcast
6:41 PM 55.4 °F 53.6 °F 94% 29.75 in 3.0 mi ENE 15.0 mph - 0.13 in   Overcast
6:53 PM 55.0 °F 55.0 °F 100% 29.74 in 3.0 mi NE 11.5 mph - 0.13 in   Overcast
7:53 PM 55.0 °F 54.0 °F 96% 29.70 in 7.0 mi East 11.5 mph 18.4 mph N/A   Mostly Cloudy
8:53 PM 57.9 °F 55.0 °F 90% 29.69 in 10.0 mi ESE 11.5 mph 20.7 mph N/A   Scattered Clouds
9:53 PM 59.0 °F 57.0 °F 93% 29.65 in 8.0 mi ESE 9.2 mph - N/A   Mostly Cloudy
10:23 PM 60.8 °F 57.2 °F 88% 29.66 in 8.0 mi SE 10.4 mph - N/A Thunderstorm Overcast
10:33 PM 60.8 °F 57.2 °F 88% 29.71 in 3.0 mi West 11.5 mph 26.5 mph 0.06 in Rain , Thunderstorm Rain
10:39 PM 60.8 °F 59.0 °F 94% 29.74 in 1.8 mi SW 10.4 mph 26.5 mph 0.20 in Rain , Thunderstorm Heavy Rain
10:53 PM 60.1 °F 59.0 °F 96% 29.74 in 1.8 mi WSW 11.5 mph 21.9 mph 0.41 in Rain , Thunderstorm Heavy Thunderstorms and Rain
10:56 PM 60.8 °F 59.0 °F 94% 29.74 in 3.0 mi West 12.7 mph 21.9 mph 0.01 in Rain , Thunderstorm Thunderstorms and Rain
11:11 PM 60.8 °F 59.0 °F 94% 29.76 in 6.0 mi WSW 11.5 mph - 0.04 in Rain , Thunderstorm Rain
11:32 PM 60.8 °F 57.2 °F 88% 29.75 in 10.0 mi WSW 8.1 mph - 0.07 in Rain Light Rain
11:53 PM 57.9 °F 57.9 °F 100% 29.77 in 4.0 mi WNW 11.5 mph - 0.13 in Rain Rain